Temp
-4 -4 -4 -5 -5 -5 -5 -5 -5 -5 -5 -5 -5 -5 -5 -5 -5 -5 -5 -5 -4 -4 -4 -4 -5 -6 -4 -3 -5 -5 -4 -4 -5 -5 -6 -4 -4 -4 -3 -3 -3 -3 -2 -2 -2
-2 -3 -3 -4 -4 -4 -4 -4 -4 -5 -5 -5 -5 -5 -4 -4 -5 -5 -5 -5 -3 -4 -4 -4 -4 -5 -4 -3 -6 -5 -5 -5 -5 -5 -5 -4 -4 -4 -4 -3 -3 -3 -3 -3 -3
-2 -2 -2 -2 -3 -3 -4 -4 -4 -4 -5 -5 -4 -4 -4 -4 -4 -4 -4 -4 -3 -5 -5 -4 -5 -5 -4 -4 -5 -5 -5 -5 -5 -6 -5 -5 -4 -4 -3 -4 -3 -3 -3 -3 -3
-2 -2 -2 -2 -2 -2 -2 -3 -3 -3 -4 -4 -4 -4 -4 -4 -5 -4 -4 -4 -4 -4 -5 -4 -4 -5 -5 -6 -5 -5 -4 -5 -5 -5 -4 -4 -4 -3 -3 -4 -3 -3 -3 -3 -3
-2 -2 -2 -2 -2 -2 -2 -2 -2 -3 -3 -3 -4 -4 -4 -4 -4 -4 -4 -4 -4 -3 -4 -4 -4 -4 -5 -7 -5 -6 -6 -5 -6 -6 -5 -5 -5 -4 -3 -4 -4 -3 -3 -3 -3
-1 -1 -1 -1 -1 -2 -1 -1 -1 -1 -2 -2 -2 -3 -3 -3 -4 -3 -4 -5 -5 -5 -4 -2 -4 -4 -6 -6 -7 -5 -6 -6 -6 -6 -5 -5 -5 -4 -4 -4 -4 -3 -3 -3 -3
-1 -1 -1 -1 -1 -1 -1 -1 -1 -1 -1 -1 -1 -2 -2 -2 -3 -3 -4 -4 -4 -5 -6 -3 -5 -5 -4 -2 -5 -6 -5 -6 -5 -5 -6 -7 -5 -5 -5 -4 -4 -4 -4 -4 -3
-1 -1 -1 -1 -1 -1 -1 -1 -1 -1 -1 -1 -1 -1 -2 -2 -2 -2 -3 -3 -4 -5 -5 -4 -4 -5 -5 -5 -5 -5 -5 -5 -5 -5 -6 -6 -6 -5 -5 -4 -4 -4 -4 -4 -4
-1 -1 -1 -1 -1 -1 -1 -1 -1 -1 -1 -1 -1 -1 -1 -1 -2 -1 -2 -3 -3 -4 -4 -4 -4 -5 -5 -5 -6 -6 -6 -5 -6 -5 -5 -6 -6 -6 -5 -5 -4 -4 -4 -4 -4
-1 -1 -1 -1 -1 -1 -1 -1 -1 -1 -0 -1 -1 -1 -1 -1 -0 -1 -1 -1 -2 -2 -3 -3 -3 -4 -5 -5 -4 -5 -5 -5 -5 -5 -5 -5 -6 -6 -5 -5 -4 -4 -4 -4 -4
-1 -1 -1 -1 -1 -1 -1 -1 -1 -1 -1 -0 -0 -1 -0 -1 -1 -1 -1 -1 -2 -2 -3 -4 -3 -4 -6 -5 -5 -6 -7 -6 -5 -6 -6 -5 -5 -6 -6 -6 -6 -5 -5 -5 -5
-1 -1 -1 -1 -1 -1 -1 -1 -1 -1 -1 -1 -1 -1 -1 -1 -1 -1 -1 -1 -2 -2 -3 -3 -4 -5 -6 -6 -5 -7 -6 -6 -6 -5 -6 -6 -5 -5 -5 -6 -6 -6 -5 -6 -5
-2 -2 -1 -1 -1 -1 -1 -1 -1 -1 -1 -1 -1 -1 -1 -1 -1 -2 -2 -2 -2 -2 -3 -3 -4 -5 -6 -6 -6 -6 -7 -7 -6 -6 -6 -7 -6 -6 -6 -6 -7 -5 -5 -5 -5
-2 -2 -2 -2 -2 -1 -1 -1 -1 -1 -1 -1 -1 -2 -1 -1 -2 -2 -2 -2 -2 -2 -3 -3 -5 -6 -6 -6 -6 -6 -7 -6 -6 -6 -7 -6 -5 -6 -6 -5 -6 -4 -5 -5 -5
-3 -3 -2 -2 -2 -2 -2 -2 -2 -1 -2 -1 -2 -2 -2 -2 -2 -2 -2 -2 -3 -3 -3 -4 -5 -7 -7 -7 -6 -6 -7 -6 -5 -6 -7 -7 -6 -6 -6 -5 -6 -5 -4 -5 -5
-4 -3 -3 -3 -2 -3 -2 -2 -2 -2 -2 -1 -2 -2 -2 -3 -3 -3 -3 -3 -3 -3 -3 -3 -4 -4 -6 -6 -6 -5 -6 -5 -6 -7 -7 -7 -7 -5 -5 -5 -5 -6 -7 -6 -5
-5 -4 -4 -4 -4 -3 -3 -3 -3 -3 -3 -3 -3 -3 -3 -3 -3 -3 -3 -3 -3 -3 -4 -4 -5 -5 -5 -6 -6 -6 -6 -6 -7 -7 -7 -7 -7 -6 -6 -5 -5 -6 -7 -5 -6
-6 -6 -5 -5 -5 -4 -4 -3 -3 -5 -5 -7 -6 -5 -4 -4 -3 -4 -4 -3 -4 -4 -4 -4 -4 -6 -6 -7 -6 -6 -6 -7 -7 -7 -6 -7 -7 -6 -6 -5 -4 -6 -6 -6 -5
-7 -6 -6 -6 -6 -6 -5 -4 -5 -6 -5 -7 -7 -7 -6 -5 -5 -4 -5 -4 -4 -5 -5 -5 -4 -6 -7 -7 -7 -6 -6 -6 -7 -7 -7 -6 -6 -6 -6 -6 -5 -6 -5 -6 -4
-7 -7 -7 -6 -6 -6 -5 -5 -6 -7 -5 -7 -7 -8 -7 -7 -6 -6 -5 -5 -5 -6 -5 -5 -5 -6 -7 -7 -7 -7 -7 -7 -7 -7 -6 -7 -7 -6 -6 -6 -7 -6 -6 -6 -6
-7 -7 -6 -7 -6 -6 -6 -6 -7 -7 -6 -6 -7 -7 -7 -7 -7 -7 -7 -7 -6 -7 -7 -7 -6 -6 -7 -7 -6 -6 -6 -6 -6 -6 -6 -6 -6 -6 -6 -5 -6 -6 -7 -7 -7
-7 -7 -6 -7 -7 -6 -6 -6 -7 -7 -7 -6 -7 -7 -7 -8 -7 -8 -7 -7 -7 -7 -7 -7 -7 -7 -6 -6 -7 -7 -5 -6 -7 -6 -6 -5 -6 -6 -6 -6 -6 -6 -8 -6 -6
-7 -7 -6 -7 -6 -6 -6 -6 -7 -7 -7 -7 -7 -7 -7 -7 -7 -7 -8 -8 -8 -7 -7 -7 -7 -7 -6 -6 -7 -6 -6 -6 -6 -6 -6 -6 -6 -6 -6 -5 -6 -6 -6 -6 -6
-8 -7 -7 -7 -7 -7 -6 -6 -6 -7 -7 -7 -7 -7 -7 -8 -8 -7 -8 -8 -7 -7 -7 -7 -7 -7 -5 -6 -7 -6 -6 -7 -6 -6 -6 -6 -6 -6 -6 -6 -5 -3 -8 -6 -6
-9 -8 -6 -7 -7 -7 -7 -7 -7 -7 -7 -8 -8 -6 -7 -7 -7 -7 -7 -7 -8 -8 -8 -7 -7 -7 -7 -6 -7 -7 -7 -7 -6 -6 -6 -6 -6 -6 -6 -6 -7 -7 -8 -7 -7
-9 -10 -9 -9 -8 -7 -7 -7 -7 -7 -7 -7 -8 -7 -8 -7 -7 -6 -7 -8 -8 -9 -9 -9 -7 -7 -7 -6 -7 -7 -7 -8 -7 -6 -6 -7 -7 -7 -7 -7 -7 -5 -6 -7 -7
-10 -10 -10 -10 -10 -9 -9 -8 -8 -8 -8 -8 -9 -10 -9 -7 -7 -6 -7 -7 -6 -8 -8 -7 -7 -7 -6 -7 -7 -7 -7 -8 -8 -8 -8 -7 -8 -7 -7 -7 -7 -6 -6 -6 -6
Height
5906 5907 5908 5909 5909 5909 5909 5910 5911 5911 5913 5913 5914 5914 5914 5914 5915 5916 5915 5917 5916 5916 5918 5917 5915 5918 5917 5916 5925 5929 5929 5927 5930 5931 5934 5933 5935 5934 5932 5934 5937 5937 5937 5938 5937
5909 5910 5910 5911 5911 5912 5913 5913 5914 5915 5914 5915 5915 5916 5917 5917 5917 5917 5918 5921 5921 5922 5923 5924 5923 5924 5925 5898 5925 5931 5931 5932 5933 5934 5935 5936 5935 5935 5936 5935 5937 5937 5938 5939 5939
5913 5913 5913 5913 5914 5914 5915 5915 5916 5917 5918 5918 5919 5920 5921 5922 5922 5920 5921 5923 5925 5924 5925 5929 5924 5926 5925 5927 5931 5931 5933 5934 5937 5936 5937 5937 5937 5937 5938 5938 5938 5939 5939 5940 5940
5915 5915 5916 5916 5916 5917 5917 5917 5918 5919 5920 5920 5920 5921 5923 5924 5926 5924 5925 5925 5926 5928 5927 5929 5931 5931 5932 5931 5930 5934 5934 5938 5938 5938 5938 5938 5936 5935 5938 5939 5938 5939 5939 5941 5942
5918 5918 5918 5918 5919 5919 5919 5920 5920 5921 5922 5923 5923 5923 5924 5926 5927 5925 5926 5928 5929 5930 5930 5931 5931 5933 5936 5931 5937 5941 5939 5941 5940 5939 5939 5937 5936 5936 5938 5939 5939 5939 5940 5941 5942
5919 5919 5920 5919 5920 5921 5921 5922 5923 5923 5924 5925 5925 5926 5926 5927 5928 5930 5927 5929 5930 5928 5928 5929 5924 5936 5934 5933 5935 5936 5941 5941 5941 5942 5941 5939 5938 5938 5939 5941 5940 5939 5939 5941 5941
5920 5920 5920 5921 5921 5921 5922 5923 5924 5925 5926 5927 5927 5928 5929 5930 5929 5931 5931 5932 5934 5934 5934 5931 5931 5936 5937 5935 5934 5937 5939 5941 5943 5943 5943 5940 5941 5942 5942 5943 5942 5941 5940 5940 5941
5921 5921 5921 5921 5922 5922 5923 5924 5925 5925 5926 5928 5929 5929 5931 5931 5931 5932 5933 5934 5936 5936 5939 5934 5936 5939 5941 5940 5939 5939 5941 5942 5942 5941 5942 5943 5943 5939 5938 5942 5943 5941 5941 5940 5940
5921 5921 5922 5922 5922 5923 5923 5923 5924 5925 5927 5928 5929 5930 5931 5932 5933 5934 5934 5935 5936 5937 5939 5936 5938 5939 5939 5939 5941 5940 5943 5944 5945 5941 5937 5938 5942 5940 5939 5940 5942 5941 5941 5940 5940
5919 5920 5921 5921 5922 5923 5923 5923 5924 5925 5926 5928 5929 5932 5932 5933 5933 5934 5935 5936 5936 5936 5937 5937 5937 5939 5940 5940 5940 5939 5940 5942 5943 5942 5936 5932 5935 5941 5940 5939 5940 5940 5940 5940 5940
5916 5918 5919 5920 5921 5921 5922 5923 5925 5926 5926 5928 5929 5930 5930 5932 5933 5934 5934 5936 5937 5937 5937 5938 5938 5937 5939 5941 5938 5939 5938 5939 5936 5939 5942 5934 5931 5920 5934 5932 5933 5934 5937 5939 5939
5913 5915 5916 5918 5919 5920 5921 5922 5923 5925 5926 5927 5928 5929 5930 5931 5931 5933 5934 5935 5936 5936 5936 5937 5936 5938 5939 5941 5939 5940 5944 5941 5938 5936 5936 5937 5933 5928 5931 5925 5928 5932 5930 5934 5938
5909 5911 5913 5914 5915 5917 5918 5919 5920 5922 5924 5926 5926 5927 5928 5930 5930 5931 5932 5933 5934 5934 5934 5934 5933 5936 5938 5941 5941 5940 5941 5942 5940 5937 5938 5936 5931 5933 5932 5928 5929 5929 5930 5930 5937
5904 5906 5908 5910 5913 5913 5915 5916 5916 5918 5921 5923 5923 5925 5927 5927 5928 5928 5929 5931 5931 5932 5932 5931 5931 5934 5937 5940 5941 5939 5937 5939 5939 5936 5936 5933 5931 5931 5927 5925 5926 5922 5922 5924 5933
5900 5902 5903 5905 5907 5908 5910 5912 5913 5915 5917 5920 5921 5923 5923 5925 5925 5926 5925 5926 5928 5929 5930 5929 5930 5932 5934 5935 5934 5937 5935 5936 5937 5936 5933 5933 5931 5930 5919 5917 5917 5922 5917 5925 5928
5895 5896 5898 5900 5902 5904 5905 5906 5909 5913 5911 5912 5917 5918 5920 5920 5921 5920 5921 5923 5924 5924 5925 5927 5926 5926 5929 5931 5931 5932 5933 5933 5935 5934 5932 5929 5926 5928 5923 5916 5915 5920 5925 5924 5925
5889 5891 5893 5894 5897 5898 5900 5902 5906 5907 5908 5908 5909 5912 5913 5915 5916 5916 5918 5918 5920 5921 5923 5923 5924 5928 5929 5929 5930 5929 5929 5929 5929 5929 5928 5920 5919 5921 5920 5918 5914 5923 5921 5918 5921
5884 5886 5887 5889 5890 5893 5894 5898 5902 5904 5906 5909 5906 5906 5910 5910 5912 5912 5912 5914 5916 5917 5918 5919 5919 5921 5926 5926 5926 5925 5926 5925 5922 5922 5919 5920 5919 5915 5918 5921 5915 5907 5899 5914 5918
5878 5880 5882 5884 5885 5887 5890 5893 5898 5900 5900 5901 5909 5905 5907 5908 5909 5909 5910 5912 5912 5914 5916 5915 5917 5917 5921 5923 5922 5922 5922 5924 5921 5921 5918 5918 5918 5907 5908 5913 5915 5907 5900 5909 5912
5870 5874 5876 5879 5879 5881 5884 5891 5894 5893 5892 5895 5900 5905 5906 5906 5907 5907 5907 5909 5909 5910 5910 5913 5913 5914 5917 5919 5920 5918 5920 5919 5919 5917 5916 5911 5910 5912 5914 5908 5904 5909 5909 5908 5910
5862 5865 5870 5871 5873 5876 5881 5887 5888 5888 5890 5892 5894 5897 5898 5902 5906 5906 5906 5906 5907 5908 5909 5908 5909 5913 5913 5913 5915 5916 5914 5916 5916 5917 5914 5911 5911 5909 5906 5901 5899 5902 5904 5904 5912
5853 5855 5861 5863 5868 5871 5876 5880 5881 5882 5884 5886 5887 5893 5893 5896 5899 5900 5904 5907 5907 5906 5906 5907 5906 5905 5907 5912 5911 5912 5912 5911 5912 5912 5913 5911 5908 5905 5907 5903 5904 5903 5903 5909 5909
5843 5846 5852 5856 5860 5864 5868 5872 5874 5876 5878 5880 5882 5887 5890 5891 5892 5894 5895 5898 5897 5903 5901 5903 5902 5901 5904 5907 5909 5908 5911 5910 5909 5909 5909 5908 5906 5905 5898 5897 5892 5871 5896 5904 5908
5834 5836 5841 5845 5850 5855 5859 5863 5865 5869 5873 5874 5875 5877 5880 5883 5884 5888 5891 5894 5897 5897 5897 5898 5899 5899 5899 5902 5902 5902 5903 5903 5903 5901 5905 5902 5900 5899 5898 5892 5886 5843 5890 5901 5901
5825 5824 5829 5835 5839 5844 5849 5855 5858 5861 5863 5867 5868 5870 5873 5875 5878 5881 5885 5888 5888 5889 5890 5890 5890 5892 5894 5896 5896 5898 5900 5898 5899 5898 5899 5897 5894 5892 5891 5888 5880 5883 5893 5897 5892
5820 5822 5825 5831 5834 5838 5842 5847 5850 5853 5856 5857 5860 5862 5864 5867 5871 5873 5875 5876 5876 5874 5877 5878 5880 5884 5885 5891 5890 5892 5894 5893 5894 5894 5888 5888 5889 5886 5886 5886 5885 5887 5889 5895 5901
5813 5815 5817 5822 5825 5830 5835 5837 5840 5843 5847 5850 5850 5852 5853 5855 5858 5863 5869 5871 5874 5872 5871 5873 5875 5875 5876 5882 5885 5885 5889 5888 5884 5884 5880 5878 5882 5880 5881 5882 5884 5887 5890 5897 5898
Wind_Speed
15 14 14 12 11 11 11 12 11 11 14 16 17 17 18 19 20 20 19 17 20 22 23 18 21 23 23 10 7 12 7 17 13 6 7 1 3 3 5 3 4 6 7 5 5
15 14 13 11 10 9 9 10 12 11 10 12 13 15 17 18 19 19 20 18 18 23 26 25 24 15 18 17 25 18 17 13 6 2 0 4 2 3 4 7 5 6 6 5 4
13 13 13 12 11 9 8 8 9 11 10 9 12 13 16 16 17 16 18 17 21 30 23 17 23 23 23 22 20 19 17 12 7 3 4 2 3 3 3 5 5 5 5 4 3
9 9 10 11 10 10 8 7 8 9 10 10 11 12 13 15 15 14 18 17 18 25 24 25 25 19 23 17 16 15 10 10 5 3 3 3 4 7 4 4 5 6 5 4 3
8 7 7 8 8 8 8 7 7 8 10 9 11 14 13 13 14 15 17 17 17 15 19 22 21 15 11 24 19 9 5 4 3 6 7 5 7 8 5 4 5 6 4 3 3
7 6 6 5 5 6 6 6 7 7 7 9 10 11 11 11 12 12 16 15 16 16 20 18 21 11 10 21 20 13 8 5 3 4 5 7 6 9 11 8 6 6 2 1 2
3 5 5 4 3 3 4 5 5 6 7 7 8 10 9 9 11 8 12 14 15 15 10 12 18 14 9 10 12 18 11 7 6 5 7 4 7 9 10 9 8 5 2 2 2
3 1 2 3 2 3 4 5 5 5 5 6 6 6 7 7 9 7 8 9 11 15 9 10 17 12 11 13 9 8 4 5 2 5 0 8 12 16 13 7 8 5 4 3 3
7 6 4 1 1 2 4 6 6 7 7 8 8 7 5 5 5 6 6 5 6 10 9 8 12 9 7 14 9 9 6 4 11 9 11 4 9 17 12 3 9 5 5 4 3
10 9 8 7 4 2 5 6 7 7 8 8 9 7 4 2 2 2 4 4 3 2 4 4 4 7 9 6 5 6 17 18 12 6 17 19 7 14 15 11 5 5 4 3 3
14 13 12 11 10 7 6 8 8 6 7 9 7 3 6 6 4 1 1 2 2 2 3 1 2 4 5 9 7 15 21 23 20 3 19 12 15 28 13 18 6 8 5 3 2
18 16 15 15 14 13 11 9 11 11 9 9 8 6 6 7 5 5 5 4 2 3 4 7 9 3 9 11 7 9 11 23 32 18 19 5 17 18 21 28 14 11 10 5 4
20 20 20 19 18 17 16 14 14 14 13 12 11 10 10 10 7 7 8 8 6 6 7 9 3 8 10 10 5 10 19 24 14 15 18 15 15 20 29 30 27 20 10 8 8
22 22 21 22 21 21 20 19 19 17 15 17 16 14 12 13 10 12 11 11 10 8 10 7 8 11 9 4 8 5 17 15 5 15 17 20 22 24 29 34 20 19 26 10 9
23 23 23 22 22 22 23 21 22 21 19 20 16 15 19 14 15 14 14 13 11 11 12 11 13 7 19 12 14 14 9 11 11 12 18 21 24 23 21 28 22 13 11 10 7
25 24 24 24 23 22 22 23 23 21 20 24 18 19 19 17 17 18 17 16 15 16 14 11 13 15 16 18 22 16 18 18 5 6 17 22 19 14 5 13 11 15 21 16 5
26 25 25 24 23 24 23 23 21 18 20 19 21 15 19 16 17 17 17 17 14 16 13 12 11 9 7 14 17 22 18 9 16 24 17 30 25 14 2 5 15 13 18 12 7
26 25 25 24 25 24 24 25 19 15 11 5 20 25 13 17 15 15 17 16 14 16 16 17 14 4 18 23 22 13 20 20 26 28 25 7 23 22 17 7 8 28 38 24 11
27 26 25 26 26 24 26 24 15 18 19 12 12 22 16 11 13 14 13 17 16 15 14 16 13 12 6 17 21 19 15 9 18 23 24 29 24 21 30 34 16 17 16 15 8
34 29 29 27 28 28 28 19 17 29 31 28 21 10 9 14 14 15 15 12 9 14 16 11 17 17 17 10 18 17 19 18 17 23 21 28 19 23 33 36 30 12 4 7 8
32 37 30 31 31 30 25 18 23 29 30 31 30 24 20 16 18 22 16 14 16 16 15 18 19 17 23 18 15 16 26 18 19 17 20 25 24 29 30 39 17 17 8 2 7
35 36 38 34 33 30 26 24 26 30 30 30 25 29 27 24 21 24 18 19 23 16 24 21 20 24 20 17 10 21 12 6 19 21 17 18 31 32 33 16 3 17 18 21 22
38 39 37 40 35 32 30 29 29 30 30 29 21 28 31 30 29 26 20 13 22 23 29 22 20 22 19 14 11 21 20 16 25 27 19 21 33 33 34 25 23 28 16 10 8
32 37 41 42 42 36 34 35 34 31 30 31 31 27 33 37 35 34 26 13 16 25 30 30 27 29 23 13 16 23 28 25 26 23 16 29 31 33 30 30 27 22 3 8 10
27 37 44 43 45 41 37 34 33 35 33 33 37 35 33 36 37 35 36 28 13 22 28 32 32 31 29 25 23 16 17 22 33 22 20 27 35 34 32 32 39 12 6 11 9
26 28 32 29 36 41 39 35 33 33 36 37 36 38 36 35 35 34 35 32 31 21 29 31 32 28 27 30 30 23 20 19 21 21 22 22 25 31 31 30 25 16 7 15 12
24 27 29 28 28 27 28 33 37 37 35 36 32 32 32 41 42 40 35 34 34 35 38 24 24 28 31 28 32 31 19 19 26 14 26 35 18 32 33 31 28 17 11 14 17
Wind_Direction
101 108 114 114 110 101 90 87 91 93 93 98 99 103 101 96 91 86 87 91 95 103 97 90 101 106 103 116 159 87 103 117 97 140 88 184 72 19 1 358 35 17 15 18 80
87 91 97 108 116 109 102 99 103 110 100 92 86 91 91 90 84 84 83 83 91 91 90 92 104 115 137 84 107 124 84 84 85 78 288 91 27 339 351 353 15 7 2 15 45
90 91 89 91 100 106 110 110 108 107 114 113 117 120 111 104 96 90 85 91 96 93 73 113 99 71 86 86 91 98 64 72 86 109 26 246 217 264 339 356 353 358 9 1 43
89 88 92 94 92 93 107 113 115 119 120 112 106 107 111 113 111 112 103 96 96 111 104 97 99 91 99 73 65 56 39 47 51 347 357 247 282 284 76 64 354 359 356 352 350
86 89 88 91 98 97 96 104 114 125 128 122 109 102 97 98 104 108 109 100 100 106 82 118 73 70 62 98 86 62 63 5 356 338 31 312 347 338 346 31 355 350 340 318 336
78 84 90 87 98 111 111 107 119 123 126 128 124 114 103 100 96 97 101 103 100 81 66 95 88 63 96 96 112 114 9 42 48 122 256 2 323 333 329 328 336 333 281 279 308
78 65 76 89 90 125 141 136 124 127 144 146 144 131 120 109 103 95 94 100 99 83 78 85 109 121 81 100 112 138 182 88 80 21 327 316 337 318 301 313 309 316 229 267 271
207 169 42 48 92 153 167 172 156 142 141 151 138 127 118 119 117 113 109 113 104 99 119 101 92 85 57 54 48 96 150 337 248 305 299 313 316 313 323 271 285 303 267 284 289
216 224 235 281 350 176 190 194 184 169 157 142 139 142 152 138 133 107 88 95 102 113 134 111 103 86 46 41 31 90 28 310 330 319 263 187 335 311 329 290 262 280 264 297 299
229 228 232 241 260 254 219 212 201 184 169 161 164 166 167 137 111 102 100 105 101 108 106 120 93 113 47 63 55 39 3 348 344 263 297 241 40 308 304 301 229 267 238 282 297
230 232 233 235 240 252 246 238 229 218 209 195 187 185 192 195 193 258 0 70 154 221 169 84 304 110 67 313 72 51 338 314 311 248 294 297 260 230 251 236 255 166 198 252 273
236 234 235 236 239 241 248 246 238 223 237 231 227 206 213 231 224 246 272 284 282 243 240 195 192 29 330 328 65 36 308 314 306 327 335 336 281 292 270 285 218 219 163 182 249
243 239 237 238 239 241 242 246 248 240 230 240 244 246 236 238 237 251 260 270 267 262 243 253 204 317 345 353 93 356 304 298 332 334 337 309 278 280 273 278 251 212 187 160 230
248 247 244 241 241 242 244 241 246 249 243 241 244 247 254 250 247 252 259 261 267 258 267 269 175 268 312 305 280 220 291 283 13 297 314 318 321 313 289 285 261 221 201 168 213
246 248 248 246 245 244 244 243 243 246 249 242 246 255 253 255 254 257 259 262 262 257 254 231 186 197 265 298 284 255 266 291 298 233 285 299 309 338 338 314 221 224 226 218 203
246 245 247 248 247 248 249 247 245 245 247 255 245 243 240 247 254 254 260 257 251 259 258 264 251 216 227 247 255 265 275 272 305 291 265 283 281 354 5 24 269 203 206 220 218
244 243 243 244 243 243 242 247 245 241 241 259 267 264 262 254 253 254 252 249 252 253 253 246 260 298 280 306 275 273 274 223 291 277 257 278 317 328 255 176 107 166 197 213 174
243 242 241 242 241 238 238 242 239 231 192 33 308 292 265 261 253 252 257 251 244 250 248 245 197 109 345 308 306 319 252 257 266 275 300 252 292 284 287 245 180 168 189 198 187
239 240 238 240 241 238 238 237 214 198 178 163 221 282 283 254 264 241 244 250 240 238 244 253 255 150 211 298 298 302 284 272 273 271 305 310 307 290 292 301 229 198 215 154 140
236 237 237 237 237 239 238 232 211 198 214 182 187 214 301 312 300 300 265 263 256 276 246 236 240 198 198 250 268 266 280 266 251 269 273 299 305 294 304 311 205 165 216 169 131
239 234 235 237 237 238 241 228 209 215 219 212 194 187 187 194 263 287 303 299 293 280 264 259 252 211 222 223 265 266 259 266 271 270 255 287 298 300 310 330 320 145 119 112 186
242 239 230 237 238 237 234 227 223 224 233 234 211 209 193 196 209 211 239 268 276 266 269 268 256 246 234 240 250 302 234 276 289 291 276 283 291 300 310 311 211 160 166 197 209
241 241 237 233 237 236 231 228 228 230 235 238 233 214 216 201 210 215 228 232 228 244 255 254 245 260 249 209 224 256 281 294 253 249 256 279 288 285 284 278 247 201 196 213 243
242 238 234 230 231 234 232 229 227 226 234 240 237 231 222 215 216 212 214 203 248 242 254 263 263 260 251 186 243 234 238 251 265 242 244 278 282 283 284 281 257 129 182 243 281
246 239 234 227 226 227 229 229 233 231 227 230 242 244 234 231 231 229 224 212 248 254 263 262 262 250 246 204 223 263 282 266 256 236 255 278 286 292 302 304 302 293 242 250 280
250 251 245 239 235 231 233 232 234 237 236 232 238 241 244 243 243 242 231 209 214 225 233 252 261 250 242 232 221 223 239 259 278 227 234 257 282 290 292 293 305 302 192 230 235
247 238 235 226 229 232 236 233 233 233 238 241 225 236 254 239 240 242 237 235 234 232 243 265 249 252 242 235 236 227 237 260 281 278 256 252 271 278 278 275 279 266 216 245 255